WZZ411 EDDB-LYBE

Flight info

Callsign WZZ411
Flight time 1h 34m
Altitude 31000
Route LUROS3Z LUROS M725 HDO DCT EVIKU/N0449F370 DCT NAVTI DCT BEGLA DCT SVR DCT BABIT DCT RIGMU
Aircraft A321/M-SDE1E2E3FGIJ1J4RWXY/LB1

Departure

Time 2026-05-08 06:32
Airport Berlin Brandenburg Airport (EDDB)

Arrival

Time 2026-05-08 08:07
Airport Belgrade Nikola Tesla Airport (LYBE)
Time Latitude Longitude Altitude Speed Heading
2026-05-08 06:19 52.36739 13.50505 155 ft 0 kts 158°
2026-05-08 06:22 52.36749 13.50498 155 ft 4 kts 161°
2026-05-08 06:22 52.36775 13.50487 155 ft 4 kts 175°
2026-05-08 06:22 52.36801 13.50490 155 ft 4 kts 204°
2026-05-08 06:23 52.36817 13.50512 155 ft 1 kts 249°
2026-05-08 06:23 52.36819 13.50519 155 ft 2 kts 249°
2026-05-08 06:24 52.36818 13.50516 155 ft 2 kts 249°
2026-05-08 06:25 52.36806 13.50464 155 ft 8 kts 249°
2026-05-08 06:25 52.36780 13.50346 155 ft 14 kts 251°
2026-05-08 06:25 52.36810 13.50182 155 ft 20 kts 327°
2026-05-08 06:25 52.36879 13.50015 155 ft 18 kts 265°
2026-05-08 06:26 52.36846 13.49824 155 ft 17 kts 250°
2026-05-08 06:26 52.36804 13.49642 155 ft 18 kts 249°
2026-05-08 06:26 52.36758 13.49446 155 ft 19 kts 249°
2026-05-08 06:26 52.36708 13.49235 155 ft 21 kts 248°
2026-05-08 06:27 52.36654 13.49009 155 ft 22 kts 249°
2026-05-08 06:27 52.36597 13.48767 155 ft 23 kts 249°
2026-05-08 06:27 52.36538 13.48513 155 ft 23 kts 250°
2026-05-08 06:27 52.36551 13.48353 155 ft 5 kts 326°
2026-05-08 06:28 52.36552 13.48352 155 ft 0 kts 327°
2026-05-08 06:31 52.36556 13.48348 155 ft 3 kts 327°
2026-05-08 06:31 52.36611 13.48302 155 ft 12 kts 338°
2026-05-08 06:31 52.36693 13.48282 155 ft 13 kts 21°
2026-05-08 06:31 52.36741 13.48392 155 ft 12 kts 66°
2026-05-08 06:32 52.36775 13.48525 155 ft 14 kts 69°
2026-05-08 06:32 52.36884 13.48974 155 ft 81 kts 68°
2026-05-08 06:32 52.37189 13.50196 155 ft 147 kts 69°
2026-05-08 06:32 52.37556 13.51886 762 ft 148 kts 69°
2026-05-08 06:33 52.37899 13.53366 1755 ft 136 kts 68°
2026-05-08 06:33 52.38262 13.54883 2310 ft 153 kts 68°
2026-05-08 06:33 52.38673 13.56612 2684 ft 174 kts 69°
2026-05-08 06:33 52.39138 13.58572 3011 ft 196 kts 69°
2026-05-08 06:34 52.39657 13.60760 3271 ft 217 kts 69°
2026-05-08 06:34 52.40235 13.63190 3592 ft 240 kts 69°
2026-05-08 06:34 52.40858 13.65822 4215 ft 252 kts 69°
2026-05-08 06:34 52.41495 13.68526 5059 ft 258 kts 69°
2026-05-08 06:35 52.42137 13.71260 5875 ft 262 kts 69°
2026-05-08 06:35 52.42806 13.74104 6755 ft 266 kts 69°
2026-05-08 06:35 52.43471 13.76928 7550 ft 271 kts 69°
2026-05-08 06:35 52.44167 13.79821 8334 ft 276 kts 66°
2026-05-08 06:36 52.44955 13.82705 9215 ft 277 kts 64°
2026-05-08 06:36 52.45777 13.85517 10095 ft 278 kts 63°
2026-05-08 06:36 52.46632 13.88390 10854 ft 282 kts 63°
2026-05-08 06:36 52.47496 13.91309 11609 ft 287 kts 63°
2026-05-08 06:37 52.48368 13.94282 12348 ft 292 kts 63°
2026-05-08 06:37 52.49253 13.97321 13055 ft 298 kts 63°
2026-05-08 06:37 52.50147 14.00421 13751 ft 304 kts 63°
2026-05-08 06:37 52.51055 14.03583 14405 ft 309 kts 64°
2026-05-08 06:38 52.51685 14.06968 15041 ft 315 kts 82°
2026-05-08 06:38 52.51568 14.10571 15672 ft 321 kts 104°
2026-05-08 06:38 52.50672 14.13934 16300 ft 326 kts 124°
2026-05-08 06:38 52.49063 14.16668 16487 ft 345 kts 147°
2026-05-08 06:39 52.46813 14.18229 16629 ft 362 kts 171°
2026-05-08 06:39 52.44242 14.18664 17056 ft 371 kts 176°
2026-05-08 06:39 52.41691 14.19022 17703 ft 376 kts 176°
2026-05-08 06:39 52.39073 14.19414 18360 ft 379 kts 176°
2026-05-08 06:40 52.36438 14.19827 18956 ft 382 kts 176°
2026-05-08 06:40 52.33771 14.19901 19509 ft 384 kts 183°
2026-05-08 06:40 52.31089 14.19760 20097 ft 387 kts 183°
2026-05-08 06:40 52.28386 14.19610 20688 ft 390 kts 183°
2026-05-08 06:41 52.25691 14.19456 21267 ft 393 kts 184°
2026-05-08 06:41 52.22949 14.19298 21870 ft 396 kts 184°
2026-05-08 06:41 52.20183 14.19137 22454 ft 399 kts 184°
2026-05-08 06:41 52.17401 14.18975 23022 ft 402 kts 184°
2026-05-08 06:42 52.14597 14.18815 23584 ft 405 kts 184°
2026-05-08 06:42 52.11771 14.18659 24086 ft 408 kts 184°
2026-05-08 06:42 52.08930 14.18506 24530 ft 410 kts 184°
2026-05-08 06:42 52.06070 14.18352 24976 ft 413 kts 184°
2026-05-08 06:43 52.03186 14.18195 25417 ft 415 kts 184°
2026-05-08 06:43 52.00289 14.18034 25858 ft 418 kts 184°
2026-05-08 06:43 51.97372 14.17871 26283 ft 421 kts 184°
2026-05-08 06:43 51.94436 14.17705 26711 ft 423 kts 184°
2026-05-08 06:44 51.91565 14.17538 27125 ft 426 kts 184°
2026-05-08 06:44 51.88582 14.17682 27486 ft 432 kts 175°
2026-05-08 06:44 51.85591 14.18293 27867 ft 435 kts 174°
2026-05-08 06:44 51.82596 14.18916 28272 ft 438 kts 174°
2026-05-08 06:45 51.79561 14.19544 28673 ft 441 kts 174°
2026-05-08 06:45 51.76509 14.20169 29067 ft 444 kts 174°
2026-05-08 06:45 51.73433 14.20791 29453 ft 447 kts 175°
2026-05-08 06:45 51.70340 14.21413 29833 ft 449 kts 174°
2026-05-08 06:46 51.67235 14.22041 30196 ft 452 kts 174°
2026-05-08 06:46 51.64103 14.22676 30478 ft 455 kts 175°
2026-05-08 06:46 51.60958 14.23310 30765 ft 458 kts 175°
2026-05-08 06:46 51.57784 14.23945 31075 ft 461 kts 175°
2026-05-08 06:47 51.54883 14.24526 31366 ft 463 kts 175°
2026-05-08 06:47 51.51910 14.25123 31669 ft 464 kts 175°
2026-05-08 06:47 51.48586 14.25795 32127 ft 463 kts 175°
2026-05-08 06:47 51.45394 14.26442 32569 ft 462 kts 175°
2026-05-08 06:48 51.42199 14.27083 33002 ft 462 kts 175°
2026-05-08 06:48 51.39100 14.27705 33402 ft 460 kts 175°
2026-05-08 06:48 51.35929 14.28340 33854 ft 459 kts 175°
2026-05-08 06:48 51.32761 14.28975 34249 ft 458 kts 175°
2026-05-08 06:49 51.29599 14.29607 34589 ft 457 kts 175°
2026-05-08 06:49 51.26445 14.30238 34932 ft 457 kts 175°
2026-05-08 06:49 51.23464 14.30833 35237 ft 456 kts 175°
2026-05-08 06:49 51.20324 14.31458 35563 ft 455 kts 175°
2026-05-08 06:50 51.17178 14.32081 35901 ft 454 kts 175°
2026-05-08 06:50 51.14047 14.32702 36235 ft 453 kts 175°
2026-05-08 06:50 51.10920 14.33321 36572 ft 452 kts 175°
2026-05-08 06:50 51.07797 14.33934 36870 ft 452 kts 176°
2026-05-08 06:51 51.04676 14.34544 37070 ft 452 kts 176°
2026-05-08 06:51 51.01554 14.35155 37136 ft 451 kts 175°
2026-05-08 06:51 50.95336 14.36378 37134 ft 450 kts 176°
2026-05-08 06:52 50.89178 14.38216 37128 ft 451 kts 169°
2026-05-08 06:52 50.83065 14.40500 37127 ft 451 kts 169°
2026-05-08 06:53 50.76951 14.42772 37120 ft 451 kts 169°
2026-05-08 06:53 50.70832 14.45045 37128 ft 452 kts 169°
2026-05-08 06:54 50.64746 14.47292 37131 ft 452 kts 170°
2026-05-08 06:54 50.58615 14.49546 37133 ft 452 kts 170°
2026-05-08 06:55 50.52481 14.51793 37138 ft 452 kts 170°
2026-05-08 06:55 50.46406 14.54420 37133 ft 456 kts 160°
2026-05-08 06:56 50.40895 14.59429 37113 ft 460 kts 149°
2026-05-08 06:56 50.35547 14.64930 37120 ft 460 kts 150°
2026-05-08 06:57 50.30185 14.70404 37121 ft 460 kts 150°
2026-05-08 06:57 50.24814 14.75843 37125 ft 460 kts 150°
2026-05-08 06:58 50.19440 14.81272 37127 ft 460 kts 150°
2026-05-08 06:58 50.14068 14.86710 37122 ft 461 kts 150°
2026-05-08 06:59 50.08687 14.92147 37124 ft 461 kts 150°
2026-05-08 06:59 50.03296 14.97552 37121 ft 461 kts 150°
2026-05-08 07:00 49.97901 15.02950 37126 ft 461 kts 150°
2026-05-08 07:00 49.92506 15.08357 37123 ft 462 kts 150°
2026-05-08 07:01 49.87107 15.13744 37106 ft 462 kts 150°
2026-05-08 07:01 49.81697 15.19116 37118 ft 462 kts 150°
2026-05-08 07:02 49.76284 15.24493 37124 ft 462 kts 150°
2026-05-08 07:02 49.70866 15.29844 37125 ft 462 kts 150°
2026-05-08 07:03 49.65449 15.35179 37123 ft 462 kts 150°
2026-05-08 07:03 49.60069 15.40479 37112 ft 462 kts 151°
2026-05-08 07:04 49.54659 15.45797 37111 ft 461 kts 151°
2026-05-08 07:04 49.49465 15.50881 37118 ft 461 kts 151°
2026-05-08 07:05 49.44057 15.56172 37125 ft 461 kts 151°
2026-05-08 07:05 49.38639 15.61440 37124 ft 461 kts 151°
2026-05-08 07:06 49.33216 15.66694 37094 ft 461 kts 151°
2026-05-08 07:06 49.27800 15.71939 37092 ft 461 kts 151°
2026-05-08 07:07 49.22381 15.77184 37101 ft 461 kts 152°
2026-05-08 07:07 49.16955 15.82410 37098 ft 461 kts 152°
2026-05-08 07:08 49.11519 15.87622 37109 ft 461 kts 152°
2026-05-08 07:08 49.06084 15.92814 37090 ft 461 kts 152°
2026-05-08 07:09 49.00648 15.98019 37101 ft 461 kts 152°
2026-05-08 07:09 48.95214 16.03212 37096 ft 461 kts 152°
2026-05-08 07:10 48.89774 16.08379 37105 ft 461 kts 152°
2026-05-08 07:10 48.84328 16.13540 37106 ft 461 kts 152°
2026-05-08 07:11 48.78875 16.18692 37107 ft 461 kts 152°
2026-05-08 07:11 48.73442 16.23882 37112 ft 462 kts 151°
2026-05-08 07:12 48.68067 16.29225 37120 ft 462 kts 151°
2026-05-08 07:12 48.62701 16.34583 37111 ft 462 kts 151°
2026-05-08 07:13 48.57318 16.39893 37118 ft 462 kts 151°
2026-05-08 07:13 48.51927 16.45158 37111 ft 461 kts 152°
2026-05-08 07:14 48.47449 16.49528 37125 ft 461 kts 152°
2026-05-08 07:14 48.42060 16.54780 37124 ft 461 kts 152°
2026-05-08 07:15 48.36672 16.60025 37124 ft 461 kts 152°
2026-05-08 07:15 48.31291 16.65242 37131 ft 460 kts 152°
2026-05-08 07:16 48.25917 16.70438 37124 ft 459 kts 152°
2026-05-08 07:16 48.20547 16.75627 37131 ft 459 kts 152°
2026-05-08 07:17 48.15183 16.80792 37130 ft 458 kts 152°
2026-05-08 07:17 48.09820 16.85945 37129 ft 458 kts 152°
2026-05-08 07:18 48.04463 16.91085 37092 ft 458 kts 152°
2026-05-08 07:18 47.99099 16.96205 37104 ft 457 kts 152°
2026-05-08 07:19 47.93737 17.01309 37113 ft 457 kts 152°
2026-05-08 07:19 47.88374 17.06403 37118 ft 457 kts 152°
2026-05-08 07:20 47.83012 17.11499 37118 ft 457 kts 152°
2026-05-08 07:20 47.77752 17.16720 37091 ft 458 kts 150°
2026-05-08 07:21 47.72529 17.22152 37100 ft 459 kts 150°
2026-05-08 07:21 47.67510 17.27353 37102 ft 458 kts 150°
2026-05-08 07:22 47.62252 17.32706 37100 ft 458 kts 151°
2026-05-08 07:22 47.56982 17.38013 37099 ft 458 kts 151°
2026-05-08 07:23 47.51715 17.43331 37088 ft 458 kts 151°
2026-05-08 07:23 47.46442 17.48645 37090 ft 459 kts 151°
2026-05-08 07:24 47.41169 17.53946 37093 ft 459 kts 151°
2026-05-08 07:24 47.35890 17.59243 37096 ft 459 kts 151°
2026-05-08 07:25 47.30605 17.64540 37099 ft 459 kts 151°
2026-05-08 07:26 47.22673 17.72458 37073 ft 459 kts 152°
2026-05-08 07:26 47.17366 17.77715 37083 ft 460 kts 152°
2026-05-08 07:27 47.12049 17.82977 37087 ft 461 kts 152°
2026-05-08 07:27 47.06734 17.88247 37091 ft 461 kts 152°
2026-05-08 07:28 47.01417 17.93505 37060 ft 461 kts 152°
2026-05-08 07:28 46.96104 17.98738 37078 ft 460 kts 152°
2026-05-08 07:29 46.90792 18.03956 37094 ft 460 kts 152°
2026-05-08 07:29 46.85486 18.09155 37091 ft 459 kts 152°
2026-05-08 07:30 46.80205 18.14263 37089 ft 457 kts 153°
2026-05-08 07:30 46.74828 18.19201 37061 ft 456 kts 154°
2026-05-08 07:31 46.69441 18.24072 37086 ft 456 kts 154°
2026-05-08 07:31 46.64067 18.28967 37092 ft 455 kts 154°
2026-05-08 07:32 46.58706 18.33877 37094 ft 455 kts 154°
2026-05-08 07:32 46.53342 18.38789 37097 ft 456 kts 154°
2026-05-08 07:33 46.47974 18.43680 37070 ft 455 kts 154°
2026-05-08 07:33 46.42601 18.48555 37088 ft 456 kts 154°
2026-05-08 07:34 46.37227 18.53420 37090 ft 455 kts 154°
2026-05-08 07:34 46.31848 18.58277 37097 ft 456 kts 154°
2026-05-08 07:35 46.26462 18.63128 37094 ft 456 kts 154°
2026-05-08 07:35 46.21079 18.67956 37072 ft 456 kts 154°
2026-05-08 07:36 46.15693 18.72790 37089 ft 455 kts 154°
2026-05-08 07:36 46.10311 18.77618 37102 ft 456 kts 154°
2026-05-08 07:37 46.04960 18.82397 36913 ft 455 kts 154°
2026-05-08 07:37 46.02268 18.84793 36650 ft 454 kts 154°
2026-05-08 07:37 45.99581 18.87181 36378 ft 454 kts 154°
2026-05-08 07:37 45.96894 18.89569 36123 ft 454 kts 154°
2026-05-08 07:38 45.94209 18.91955 35846 ft 454 kts 154°
2026-05-08 07:38 45.91520 18.94350 35597 ft 455 kts 154°
2026-05-08 07:38 45.88838 18.96775 35349 ft 456 kts 153°
2026-05-08 07:38 45.86160 18.99226 34852 ft 458 kts 153°
2026-05-08 07:39 45.83490 19.01685 34393 ft 455 kts 153°
2026-05-08 07:39 45.80835 19.04132 33854 ft 453 kts 153°
2026-05-08 07:39 45.78191 19.06558 33350 ft 449 kts 154°
2026-05-08 07:39 45.75558 19.08959 32844 ft 445 kts 153°
2026-05-08 07:40 45.72956 19.11319 32356 ft 441 kts 153°
2026-05-08 07:40 45.70374 19.13655 31864 ft 438 kts 153°
2026-05-08 07:40 45.67811 19.15973 31361 ft 434 kts 154°
2026-05-08 07:40 45.65275 19.18263 30866 ft 430 kts 154°
2026-05-08 07:41 45.62757 19.20538 30395 ft 427 kts 154°
2026-05-08 07:41 45.60259 19.22792 29884 ft 423 kts 154°
2026-05-08 07:41 45.57786 19.25025 29412 ft 418 kts 154°
2026-05-08 07:41 45.55339 19.27228 28953 ft 413 kts 154°
2026-05-08 07:42 45.52920 19.29400 28507 ft 409 kts 154°
2026-05-08 07:42 45.50527 19.31547 28063 ft 404 kts 153°
2026-05-08 07:42 45.48161 19.33669 27642 ft 400 kts 153°
2026-05-08 07:42 45.45812 19.35774 27223 ft 397 kts 153°
2026-05-08 07:43 45.43492 19.37886 26816 ft 396 kts 150°
2026-05-08 07:43 45.41379 19.40436 26402 ft 401 kts 139°
2026-05-08 07:43 45.39615 19.43525 25982 ft 405 kts 128°
2026-05-08 07:43 45.38180 19.46973 25562 ft 405 kts 124°
2026-05-08 07:44 45.36776 19.50427 25144 ft 402 kts 124°
2026-05-08 07:44 45.35371 19.53855 24708 ft 401 kts 124°
2026-05-08 07:44 45.33964 19.57267 24285 ft 399 kts 124°
2026-05-08 07:44 45.32560 19.60666 23844 ft 398 kts 124°
2026-05-08 07:45 45.31159 19.64055 23353 ft 397 kts 124°
2026-05-08 07:45 45.29767 19.67424 22895 ft 394 kts 124°
2026-05-08 07:45 45.28403 19.70721 22440 ft 390 kts 124°
2026-05-08 07:45 45.27033 19.74027 21991 ft 387 kts 124°
2026-05-08 07:46 45.25671 19.77303 21539 ft 384 kts 124°
2026-05-08 07:46 45.24319 19.80562 21080 ft 382 kts 124°
2026-05-08 07:46 45.22978 19.83796 20630 ft 379 kts 124°
2026-05-08 07:46 45.21647 19.87011 20181 ft 377 kts 124°
2026-05-08 07:47 45.20321 19.90207 19721 ft 375 kts 123°
2026-05-08 07:47 45.19002 19.93379 19268 ft 372 kts 123°
2026-05-08 07:47 45.17690 19.96528 18821 ft 370 kts 123°
2026-05-08 07:47 45.16382 19.99663 18359 ft 368 kts 123°
2026-05-08 07:48 45.15084 20.02778 17887 ft 365 kts 123°
2026-05-08 07:48 45.13800 20.05862 17443 ft 361 kts 123°
2026-05-08 07:48 45.12527 20.08908 16995 ft 357 kts 123°
2026-05-08 07:48 45.11265 20.11920 16566 ft 354 kts 123°
2026-05-08 07:49 45.10013 20.14900 16133 ft 351 kts 123°
2026-05-08 07:49 45.08770 20.17851 15708 ft 348 kts 123°
2026-05-08 07:49 45.07534 20.20778 15283 ft 345 kts 123°
2026-05-08 07:49 45.06308 20.23682 14859 ft 343 kts 122°
2026-05-08 07:50 45.05095 20.26565 14439 ft 340 kts 122°
2026-05-08 07:50 45.03888 20.29433 14025 ft 338 kts 122°
2026-05-08 07:50 45.02691 20.32278 13576 ft 336 kts 122°
2026-05-08 07:50 45.01502 20.35101 13160 ft 332 kts 122°
2026-05-08 07:51 45.00325 20.37889 12753 ft 329 kts 122°
2026-05-08 07:51 44.99155 20.40647 12361 ft 326 kts 123°
2026-05-08 07:51 44.97992 20.43377 11958 ft 323 kts 122°
2026-05-08 07:51 44.96840 20.46087 11566 ft 321 kts 122°
2026-05-08 07:52 44.95698 20.48776 11173 ft 318 kts 122°
2026-05-08 07:52 44.94561 20.51452 10779 ft 317 kts 122°
2026-05-08 07:52 44.93429 20.54110 10387 ft 315 kts 122°
2026-05-08 07:52 44.92309 20.56740 10136 ft 309 kts 122°
2026-05-08 07:53 44.91214 20.59311 9878 ft 303 kts 122°
2026-05-08 07:53 44.90014 20.61717 9495 ft 299 kts 135°
2026-05-08 07:53 44.88423 20.63542 9106 ft 293 kts 152°
2026-05-08 07:53 44.86564 20.64656 8713 ft 289 kts 168°
2026-05-08 07:54 44.84600 20.65146 8331 ft 286 kts 173°
2026-05-08 07:54 44.82633 20.65580 7941 ft 285 kts 173°
2026-05-08 07:54 44.80676 20.66026 7556 ft 285 kts 172°
2026-05-08 07:54 44.78784 20.66845 7202 ft 285 kts 155°
2026-05-08 07:55 44.77154 20.68423 6879 ft 285 kts 137°
2026-05-08 07:55 44.75940 20.70590 6792 ft 283 kts 123°
2026-05-08 07:55 44.74893 20.72943 6693 ft 283 kts 123°
2026-05-08 07:55 44.73864 20.75240 6562 ft 272 kts 123°
2026-05-08 07:56 44.72868 20.77454 6400 ft 264 kts 123°
2026-05-08 07:56 44.71907 20.79588 6249 ft 257 kts 123°
2026-05-08 07:56 44.70942 20.81717 6187 ft 259 kts 124°
2026-05-08 07:56 44.69976 20.83849 6090 ft 258 kts 123°
2026-05-08 07:57 44.69014 20.85977 5992 ft 258 kts 123°
2026-05-08 07:57 44.67854 20.87844 5877 ft 253 kts 148°
2026-05-08 07:57 44.66238 20.88688 5755 ft 248 kts 178°
2026-05-08 07:57 44.64564 20.88298 5637 ft 245 kts 207°
2026-05-08 07:58 44.63109 20.87067 5518 ft 244 kts 214°
2026-05-08 07:58 44.61675 20.85785 5400 ft 245 kts 213°
2026-05-08 07:58 44.60348 20.84318 5283 ft 243 kts 233°
2026-05-08 07:58 44.59701 20.82167 5167 ft 242 kts 264°
2026-05-08 07:59 44.59951 20.79855 5061 ft 244 kts 295°
2026-05-08 07:59 44.60832 20.77808 4967 ft 246 kts 302°
2026-05-08 07:59 44.61751 20.75786 4865 ft 246 kts 301°
2026-05-08 07:59 44.62665 20.73762 4750 ft 245 kts 301°
2026-05-08 08:00 44.63574 20.71738 4639 ft 245 kts 301°
2026-05-08 08:00 44.64480 20.69718 4539 ft 244 kts 300°
2026-05-08 08:00 44.65379 20.67703 4437 ft 244 kts 301°
2026-05-08 08:00 44.66277 20.65690 4335 ft 242 kts 300°
2026-05-08 08:01 44.67171 20.63685 4227 ft 242 kts 301°
2026-05-08 08:01 44.67759 20.62369 4158 ft 237 kts 301°
2026-05-08 08:01 44.68618 20.60450 4075 ft 225 kts 301°
2026-05-08 08:01 44.69431 20.58628 3978 ft 211 kts 301°
2026-05-08 08:02 44.70177 20.56900 3714 ft 207 kts 300°
2026-05-08 08:02 44.70907 20.55180 3486 ft 204 kts 300°
2026-05-08 08:02 44.71630 20.53467 3271 ft 203 kts 300°
2026-05-08 08:02 44.72353 20.51782 3202 ft 195 kts 301°
2026-05-08 08:03 44.73027 20.50260 3118 ft 172 kts 302°
2026-05-08 08:03 44.73639 20.48889 3041 ft 162 kts 301°
2026-05-08 08:03 44.74232 20.47564 2937 ft 160 kts 302°
2026-05-08 08:03 44.74818 20.46257 2711 ft 156 kts 302°
2026-05-08 08:04 44.75376 20.45012 2506 ft 147 kts 302°
2026-05-08 08:04 44.75912 20.43813 2293 ft 143 kts 303°
2026-05-08 08:04 44.76440 20.42631 2100 ft 142 kts 303°
2026-05-08 08:04 44.76960 20.41464 1902 ft 140 kts 303°
2026-05-08 08:05 44.77479 20.40301 1712 ft 140 kts 303°
2026-05-08 08:05 44.77997 20.39137 1520 ft 140 kts 303°
2026-05-08 08:05 44.78514 20.37976 1332 ft 140 kts 303°
2026-05-08 08:05 44.79030 20.36817 1143 ft 140 kts 302°
2026-05-08 08:06 44.79543 20.35658 952 ft 139 kts 301°
2026-05-08 08:06 44.80050 20.34505 771 ft 138 kts 301°
2026-05-08 08:06 44.80540 20.33362 522 ft 136 kts 302°
2026-05-08 08:06 44.81037 20.32262 350 ft 135 kts 303°
2026-05-08 08:07 44.81497 20.31243 305 ft 103 kts 302°
2026-05-08 08:07 44.81783 20.30597 311 ft 53 kts 302°
2026-05-08 08:07 44.81918 20.30295 308 ft 29 kts 303°
2026-05-08 08:07 44.82006 20.30100 306 ft 24 kts 302°
2026-05-08 08:08 44.82089 20.29906 307 ft 18 kts 301°
2026-05-08 08:08 44.82149 20.29772 308 ft 17 kts 302°
2026-05-08 08:08 44.82187 20.29686 308 ft 7 kts 300°
2026-05-08 08:08 44.82186 20.29613 309 ft 8 kts 238°
2026-05-08 08:09 44.82139 20.29564 309 ft 9 kts 213°
2026-05-08 08:09 44.82084 20.29514 308 ft 5 kts 212°
2026-05-08 08:09 44.82076 20.29507 307 ft 2 kts 212°
2026-05-08 08:09 44.82053 20.29487 309 ft 5 kts 211°
2026-05-08 08:10 44.82023 20.29461 308 ft 0 kts 212°
2026-05-08 08:10 44.82022 20.29460 308 ft 1 kts 212°
2026-05-08 08:10 44.82014 20.29453 307 ft 2 kts 212°
2026-05-08 08:10 44.81996 20.29431 307 ft 5 kts 237°
2026-05-08 08:11 44.82004 20.29374 309 ft 6 kts 297°
2026-05-08 08:11 44.82012 20.29355 307 ft 0 kts 302°